contact:dominique.lefevre@mio.osupytheas.fr, maurice.libes@osupytheas.fr, didier.mallarino@osupytheas.fr
Project:EMSO http://www.emso-fr.org/EMSO-France
Depth: 2436.0 m
Title:EMSO Ligure Ouest : Data MII capteur MICROCAT
DateTime_Computer,Latitude,Longitude,Temperature,Conductivity,Pressure,DateTime_Instrument
DateTime_Computer,Latitude,Longitude,degC,S m-1,dbar,DateTime_Instrument
2019-08-01T00:01:11Z,42.805,6.029,13.2955,4.59959,2469.83,2019-8-01T02:01:31Z
2019-08-01T00:04:15Z,42.805,6.029,13.2954,4.59954,2469.83,2019-8-01T02:04:34Z
2019-08-01T00:07:18Z,42.805,6.029,13.2956,4.59953,2469.853,2019-8-01T02:07:37Z
2019-08-01T00:10:21Z,42.805,6.029,13.2956,4.59953,2469.83,2019-8-01T02:10:41Z
2019-08-01T00:13:24Z,42.805,6.029,13.2956,4.59956,2469.844,2019-8-01T02:13:44Z
2019-08-01T00:16:27Z,42.805,6.029,13.2958,4.59957,2469.876,2019-8-01T02:16:47Z
2019-08-01T00:19:30Z,42.805,6.029,13.2957,4.59962,2469.83,2019-8-01T02:19:50Z
2019-08-01T00:22:34Z,42.805,6.029,13.2958,4.59954,2469.853,2019-8-01T02:22:53Z
2019-08-01T00:25:37Z,42.805,6.029,13.2953,4.59954,2469.853,2019-8-01T02:25:56Z
2019-08-01T00:28:40Z,42.805,6.029,13.2956,4.59953,2469.821,2019-8-01T02:29:00Z
2019-08-01T00:31:43Z,42.805,6.029,13.2956,4.59953,2469.844,2019-8-01T02:32:03Z
2019-08-01T00:34:46Z,42.805,6.029,13.2956,4.59954,2469.83,2019-8-01T02:35:06Z
2019-08-01T00:37:50Z,42.805,6.029,13.2951,4.59954,2469.806,2019-8-01T02:38:09Z
2019-08-01T00:40:53Z,42.805,6.029,13.2953,4.59954,2469.783,2019-8-01T02:41:12Z
2019-08-01T00:43:56Z,42.805,6.029,13.2956,4.59954,2469.83,2019-8-01T02:44:16Z
2019-08-01T00:46:59Z,42.805,6.029,13.2955,4.59953,2469.83,2019-8-01T02:47:19Z
2019-08-01T00:50:02Z,42.805,6.029,13.2959,4.59957,2469.797,2019-8-01T02:50:22Z
2019-08-01T00:53:06Z,42.805,6.029,13.2956,4.59954,2469.83,2019-8-01T02:53:25Z
2019-08-01T00:56:09Z,42.805,6.029,13.2954,4.59953,2469.844,2019-8-01T02:56:28Z
2019-08-01T00:59:12Z,42.805,6.029,13.2952,4.59957,2469.806,2019-8-01T02:59:32Z
2019-08-01T01:02:16Z,42.805,6.029,13.2953,4.59955,2469.83,2019-8-01T03:02:35Z
2019-08-01T01:05:19Z,42.805,6.029,13.2958,4.59956,2469.797,2019-8-01T03:05:38Z
2019-08-01T01:08:22Z,42.805,6.029,13.2955,4.59954,2469.83,2019-8-01T03:08:42Z
2019-08-01T01:11:25Z,42.805,6.029,13.2951,4.59955,2469.806,2019-8-01T03:11:45Z
2019-08-01T01:14:28Z,42.805,6.029,13.2958,4.59954,2469.806,2019-8-01T03:14:48Z
2019-08-01T01:17:31Z,42.805,6.029,13.2953,4.59954,2469.783,2019-8-01T03:17:51Z
2019-08-01T01:20:35Z,42.805,6.029,13.2956,4.59956,2469.821,2019-8-01T03:20:54Z
2019-08-01T01:23:38Z,42.805,6.029,13.2956,4.59956,2469.806,2019-8-01T03:23:57Z
2019-08-01T01:26:41Z,42.805,6.029,13.2957,4.59954,2469.853,2019-8-01T03:27:01Z
2019-08-01T01:29:44Z,42.805,6.029,13.2961,4.59957,2469.806,2019-8-01T03:30:04Z
2019-08-01T01:32:48Z,42.805,6.029,13.2957,4.59954,2469.821,2019-8-01T03:33:07Z
2019-08-01T01:35:51Z,42.805,6.029,13.2955,4.59956,2469.806,2019-8-01T03:36:11Z
2019-08-01T01:38:54Z,42.805,6.029,13.2958,4.59955,2469.797,2019-8-01T03:39:14Z
2019-08-01T01:41:57Z,42.805,6.029,13.2956,4.59954,2469.806,2019-8-01T03:42:17Z
2019-08-01T01:45:01Z,42.805,6.029,13.2955,4.59954,2469.783,2019-8-01T03:45:20Z
2019-08-01T01:48:04Z,42.805,6.029,13.2957,4.59954,2469.797,2019-8-01T03:48:24Z
2019-08-01T01:51:07Z,42.805,6.029,13.2957,4.59954,2469.806,2019-8-01T03:51:27Z
2019-08-01T01:54:11Z,42.805,6.029,13.2955,4.59955,2469.783,2019-8-01T03:54:30Z
2019-08-01T01:57:14Z,42.805,6.029,13.2955,4.59954,2469.806,2019-8-01T03:57:33Z
2019-08-01T02:00:17Z,42.805,6.029,13.2957,4.59956,2469.773,2019-8-01T04:00:37Z
2019-08-01T02:03:20Z,42.805,6.029,13.2957,4.59954,2469.783,2019-8-01T04:03:40Z
2019-08-01T02:06:24Z,42.805,6.029,13.2955,4.59953,2469.797,2019-8-01T04:06:43Z
2019-08-01T02:09:27Z,42.805,6.029,13.2956,4.59953,2469.783,2019-8-01T04:09:47Z
2019-08-01T02:12:30Z,42.805,6.029,13.2953,4.59858,2469.806,2019-8-01T04:12:50Z
2019-08-01T02:15:34Z,42.805,6.029,13.2956,4.59954,2469.783,2019-8-01T04:15:53Z
2019-08-01T02:18:37Z,42.805,6.029,13.2956,4.59954,2469.797,2019-8-01T04:18:56Z
2019-08-01T02:21:40Z,42.805,6.029,13.2954,4.59955,2469.797,2019-8-01T04:22:00Z
2019-08-01T02:24:43Z,42.805,6.029,13.2956,4.59954,2469.806,2019-8-01T04:25:03Z
2019-08-01T02:27:47Z,42.805,6.029,13.2958,4.59953,2469.806,2019-8-01T04:28:06Z
2019-08-01T02:30:50Z,42.805,6.029,13.2959,4.59957,2469.76,2019-8-01T04:31:09Z
2019-08-01T02:33:53Z,42.805,6.029,13.2952,4.59954,2469.76,2019-8-01T04:34:13Z
2019-08-01T02:36:57Z,42.805,6.029,13.2958,4.59954,2469.76,2019-8-01T04:37:16Z
2019-08-01T02:40:00Z,42.805,6.029,13.2958,4.59953,2469.773,2019-8-01T04:40:19Z
2019-08-01T02:43:03Z,42.805,6.029,13.2956,4.59955,2469.806,2019-8-01T04:43:23Z
2019-08-01T02:46:06Z,42.805,6.029,13.2958,4.59953,2469.773,2019-8-01T04:46:26Z
2019-08-01T02:49:10Z,42.805,6.029,13.2957,4.59954,2469.783,2019-8-01T04:49:29Z
2019-08-01T02:52:13Z,42.805,6.029,13.2957,4.59954,2469.806,2019-8-01T04:52:33Z
2019-08-01T02:55:16Z,42.805,6.029,13.2956,4.59955,2469.797,2019-8-01T04:55:36Z
2019-08-01T02:58:19Z,42.805,6.029,13.2958,4.59955,2469.783,2019-8-01T04:58:39Z
2019-08-01T03:01:23Z,42.805,6.029,13.2954,4.59954,2469.76,2019-8-01T05:01:42Z
2019-08-01T03:04:26Z,42.805,6.029,13.2955,4.59955,2469.783,2019-8-01T05:04:46Z
2019-08-01T03:07:29Z,42.805,6.029,13.2952,4.59953,2469.797,2019-8-01T05:07:49Z
2019-08-01T03:10:33Z,42.805,6.029,13.2954,4.59954,2469.821,2019-8-01T05:10:52Z
2019-08-01T03:13:36Z,42.805,6.029,13.2956,4.59956,2469.783,2019-8-01T05:13:56Z
2019-08-01T03:16:39Z,42.805,6.029,13.2958,4.59954,2469.76,2019-8-01T05:16:59Z
2019-08-01T03:19:42Z,42.805,6.029,13.2956,4.59954,2469.783,2019-8-01T05:20:02Z
2019-08-01T03:22:46Z,42.805,6.029,13.2954,4.59954,2469.797,2019-8-01T05:23:05Z
2019-08-01T03:25:49Z,42.805,6.029,13.2955,4.59956,2469.806,2019-8-01T05:26:09Z
2019-08-01T03:28:52Z,42.805,6.029,13.2955,4.59954,2469.806,2019-8-01T05:29:12Z
2019-08-01T03:31:56Z,42.805,6.029,13.2958,4.59954,2469.83,2019-8-01T05:32:15Z
2019-08-01T03:34:59Z,42.805,6.029,13.2952,4.59956,2469.783,2019-8-01T05:35:19Z
2019-08-01T03:38:02Z,42.805,6.029,13.2954,4.59955,2469.797,2019-8-01T05:38:22Z
2019-08-01T03:41:06Z,42.805,6.029,13.2955,4.59954,2469.797,2019-8-01T05:41:25Z
2019-08-01T03:44:09Z,42.805,6.029,13.2958,4.59954,2469.806,2019-8-01T05:44:28Z
2019-08-01T03:47:12Z,42.805,6.029,13.2953,4.59955,2469.797,2019-8-01T05:47:32Z
2019-08-01T03:50:15Z,42.805,6.029,13.2953,4.59954,2469.821,2019-8-01T05:50:35Z
2019-08-01T03:53:19Z,42.805,6.029,13.2957,4.59954,2469.783,2019-8-01T05:53:38Z
2019-08-01T03:56:22Z,42.805,6.029,13.2956,4.59954,2469.821,2019-8-01T05:56:42Z
2019-08-01T03:59:25Z,42.805,6.029,13.2955,4.59954,2469.844,2019-8-01T05:59:45Z
2019-08-01T04:02:29Z,42.805,6.029,13.2956,4.59954,2469.806,2019-8-01T06:02:48Z
2019-08-01T04:05:32Z,42.805,6.029,13.2954,4.59954,2469.83,2019-8-01T06:05:52Z
2019-08-01T04:08:35Z,42.805,6.029,13.2958,4.59954,2469.821,2019-8-01T06:08:55Z
2019-08-01T04:11:38Z,42.805,6.029,13.2955,4.59957,2469.83,2019-8-01T06:11:58Z
2019-08-01T04:14:42Z,42.805,6.029,13.2955,4.59954,2469.83,2019-8-01T06:15:01Z
2019-08-01T04:17:45Z,42.805,6.029,13.2957,4.59955,2469.83,2019-8-01T06:18:05Z
2019-08-01T04:20:48Z,42.805,6.029,13.2957,4.59956,2469.853,2019-8-01T06:21:08Z
2019-08-01T04:23:52Z,42.805,6.029,13.2953,4.59955,2469.853,2019-8-01T06:24:11Z
2019-08-01T04:26:55Z,42.805,6.029,13.2957,4.59954,2469.876,2019-8-01T06:27:15Z
2019-08-01T04:29:58Z,42.805,6.029,13.2954,4.59954,2469.867,2019-8-01T06:30:18Z
2019-08-01T04:33:02Z,42.805,6.029,13.2956,4.59954,2469.853,2019-8-01T06:33:21Z
2019-08-01T04:36:05Z,42.805,6.029,13.2954,4.59954,2469.89,2019-8-01T06:36:25Z
2019-08-01T04:39:08Z,42.805,6.029,13.2958,4.59955,2469.876,2019-8-01T06:39:28Z
2019-08-01T04:42:12Z,42.805,6.029,13.2956,4.59956,2469.853,2019-8-01T06:42:31Z
2019-08-01T04:45:15Z,42.805,6.029,13.2958,4.59954,2469.867,2019-8-01T06:45:34Z
2019-08-01T04:48:18Z,42.805,6.029,13.2957,4.59956,2469.867,2019-8-01T06:48:38Z
2019-08-01T04:51:21Z,42.805,6.029,13.2952,4.59955,2469.89,2019-8-01T06:51:41Z
2019-08-01T04:54:25Z,42.805,6.029,13.2958,4.59956,2469.89,2019-8-01T06:54:44Z
2019-08-01T04:57:28Z,42.805,6.029,13.2958,4.59956,2469.867,2019-8-01T06:57:48Z
2019-08-01T05:00:32Z,42.805,6.029,13.2957,4.59957,2469.853,2019-8-01T07:00:51Z
2019-08-01T05:03:35Z,42.805,6.029,13.2956,4.59956,2469.876,2019-8-01T07:03:55Z
2019-08-01T05:06:38Z,42.805,6.029,13.2956,4.59954,2469.876,2019-8-01T07:06:58Z
2019-08-01T05:09:42Z,42.805,6.029,13.2958,4.59956,2469.914,2019-8-01T07:10:01Z
2019-08-01T05:12:45Z,42.805,6.029,13.2957,4.59956,2469.914,2019-8-01T07:13:05Z
2019-08-01T05:15:48Z,42.805,6.029,13.2957,4.59956,2469.914,2019-8-01T07:16:08Z
2019-08-01T05:18:51Z,42.805,6.029,13.2959,4.59955,2469.914,2019-8-01T07:19:11Z
2019-08-01T05:21:55Z,42.805,6.029,13.2953,4.59955,2469.876,2019-8-01T07:22:14Z
2019-08-01T05:24:58Z,42.805,6.029,13.2953,4.59955,2469.9,2019-8-01T07:25:18Z
2019-08-01T05:28:01Z,42.805,6.029,13.2957,4.59955,2469.914,2019-8-01T07:28:21Z
2019-08-01T05:31:05Z,42.805,6.029,13.2958,4.59955,2469.9,2019-8-01T07:31:24Z
2019-08-01T05:34:08Z,42.805,6.029,13.2958,4.59955,2469.937,2019-8-01T07:34:28Z
2019-08-01T05:37:11Z,42.805,6.029,13.2958,4.59954,2469.923,2019-8-01T07:37:31Z
2019-08-01T05:40:15Z,42.805,6.029,13.2954,4.59957,2469.923,2019-8-01T07:40:34Z
2019-08-01T05:43:18Z,42.805,6.029,13.2958,4.59955,2469.9,2019-8-01T07:43:38Z
2019-08-01T05:46:21Z,42.805,6.029,13.2958,4.59956,2469.886,2019-8-01T07:46:41Z
2019-08-01T05:49:25Z,42.805,6.029,13.2958,4.59957,2469.9,2019-8-01T07:49:44Z
2019-08-01T05:52:28Z,42.805,6.029,13.2958,4.59956,2469.89,2019-8-01T07:52:48Z
2019-08-01T05:55:31Z,42.805,6.029,13.2955,4.59955,2469.9,2019-8-01T07:55:51Z
2019-08-01T05:58:35Z,42.805,6.029,13.2958,4.59958,2469.96,2019-8-01T07:58:54Z
2019-08-01T06:01:38Z,42.805,6.029,13.2957,4.59955,2469.947,2019-8-01T08:01:58Z
2019-08-01T06:04:41Z,42.805,6.029,13.2960,4.59958,2469.909,2019-8-01T08:05:01Z
2019-08-01T06:07:45Z,42.805,6.029,13.2958,4.59957,2469.96,2019-8-01T08:08:04Z
2019-08-01T06:10:48Z,42.805,6.029,13.2957,4.59959,2469.937,2019-8-01T08:11:07Z
2019-08-01T06:13:52Z,42.805,6.029,13.2961,4.59958,2469.947,2019-8-01T08:14:11Z
2019-08-01T06:16:55Z,42.805,6.029,13.2955,4.59956,2469.923,2019-8-01T08:17:15Z
2019-08-01T06:19:59Z,42.805,6.029,13.2957,4.59956,2469.947,2019-8-01T08:20:18Z
2019-08-01T06:23:02Z,42.805,6.029,13.2958,4.59955,2469.923,2019-8-01T08:23:21Z
2019-08-01T06:26:05Z,42.805,6.029,13.2957,4.59957,2469.947,2019-8-01T08:26:25Z
2019-08-01T06:29:08Z,42.805,6.029,13.2956,4.59956,2469.923,2019-8-01T08:29:28Z
2019-08-01T06:32:12Z,42.805,6.029,13.2957,4.59955,2469.923,2019-8-01T08:32:31Z
2019-08-01T06:35:15Z,42.805,6.029,13.2958,4.59958,2469.914,2019-8-01T08:35:35Z
2019-08-01T06:38:18Z,42.805,6.029,13.2955,4.59958,2469.914,2019-8-01T08:38:38Z
2019-08-01T06:41:22Z,42.805,6.029,13.2958,4.59961,2469.9,2019-8-01T08:41:41Z
2019-08-01T06:44:25Z,42.805,6.029,13.2957,4.59956,2469.947,2019-8-01T08:44:45Z
2019-08-01T06:47:28Z,42.805,6.029,13.2957,4.59956,2469.937,2019-8-01T08:47:48Z
2019-08-01T06:50:32Z,42.805,6.029,13.2962,4.59956,2469.923,2019-8-01T08:50:51Z
2019-08-01T06:53:35Z,42.805,6.029,13.2956,4.59958,2469.96,2019-8-01T08:53:55Z
2019-08-01T06:56:38Z,42.805,6.029,13.2961,4.59957,2469.96,2019-8-01T08:56:58Z
2019-08-01T06:59:42Z,42.805,6.029,13.2958,4.59956,2469.97,2019-8-01T09:00:01Z
2019-08-01T07:02:45Z,42.805,6.029,13.2958,4.59956,2469.96,2019-8-01T09:03:05Z
2019-08-01T07:05:48Z,42.805,6.029,13.2958,4.59958,2469.96,2019-8-01T09:06:08Z
2019-08-01T07:08:52Z,42.805,6.029,13.2958,4.59957,2469.947,2019-8-01T09:09:11Z
2019-08-01T07:11:55Z,42.805,6.029,13.2957,4.59956,2469.96,2019-8-01T09:12:15Z
2019-08-01T07:14:58Z,42.805,6.029,13.2958,4.59956,2469.947,2019-8-01T09:15:18Z
2019-08-01T07:18:02Z,42.805,6.029,13.2956,4.59961,2469.923,2019-8-01T09:18:21Z
2019-08-01T07:21:05Z,42.805,6.029,13.2961,4.59958,2469.923,2019-8-01T09:21:24Z
2019-08-01T07:24:08Z,42.805,6.029,13.2961,4.59956,2469.947,2019-8-01T09:24:28Z
2019-08-01T07:27:11Z,42.805,6.029,13.2957,4.59956,2469.923,2019-8-01T09:27:31Z
2019-08-01T07:30:15Z,42.805,6.029,13.2958,4.59957,2469.923,2019-8-01T09:30:34Z
2019-08-01T07:33:18Z,42.805,6.029,13.2958,4.59957,2469.9,2019-8-01T09:33:38Z
2019-08-01T07:36:21Z,42.805,6.029,13.2959,4.59958,2469.947,2019-8-01T09:36:41Z
2019-08-01T07:39:25Z,42.805,6.029,13.2958,4.59958,2469.9,2019-8-01T09:39:44Z
2019-08-01T07:42:28Z,42.805,6.029,13.2961,4.59959,2469.923,2019-8-01T09:42:48Z
2019-08-01T07:45:31Z,42.805,6.029,13.2962,4.59961,2469.947,2019-8-01T09:45:51Z
2019-08-01T07:48:35Z,42.805,6.029,13.2960,4.59958,2469.937,2019-8-01T09:48:54Z
2019-08-01T07:51:38Z,42.805,6.029,13.2958,4.59957,2469.876,2019-8-01T09:51:58Z
2019-08-01T07:54:41Z,42.805,6.029,13.2958,4.59957,2469.9,2019-8-01T09:55:01Z
2019-08-01T07:57:44Z,42.805,6.029,13.2958,4.59958,2469.9,2019-8-01T09:58:04Z
2019-08-01T08:00:48Z,42.805,6.029,13.2961,4.59960,2469.937,2019-8-01T10:01:07Z
2019-08-01T08:03:51Z,42.805,6.029,13.2959,4.59958,2469.923,2019-8-01T10:04:11Z
2019-08-01T08:06:54Z,42.805,6.029,13.2958,4.59956,2469.96,2019-8-01T10:07:14Z
2019-08-01T08:09:57Z,42.805,6.029,13.2958,4.59958,2469.914,2019-8-01T10:10:17Z
2019-08-01T08:13:01Z,42.805,6.029,13.2959,4.59958,2469.914,2019-8-01T10:13:20Z
2019-08-01T08:16:04Z,42.805,6.029,13.2963,4.59958,2469.9,2019-8-01T10:16:24Z
2019-08-01T08:19:07Z,42.805,6.029,13.2959,4.59958,2469.876,2019-8-01T10:19:27Z
2019-08-01T08:22:11Z,42.805,6.029,13.2959,4.59958,2469.876,2019-8-01T10:22:30Z
2019-08-01T08:25:14Z,42.805,6.029,13.2960,4.59957,2469.863,2019-8-01T10:25:34Z
2019-08-01T08:28:17Z,42.805,6.029,13.2960,4.59958,2469.914,2019-8-01T10:28:37Z
2019-08-01T08:31:21Z,42.805,6.029,13.2956,4.59958,2469.876,2019-8-01T10:31:40Z
2019-08-01T08:34:24Z,42.805,6.029,13.2961,4.59958,2469.853,2019-8-01T10:34:43Z
2019-08-01T08:37:27Z,42.805,6.029,13.2958,4.59957,2469.876,2019-8-01T10:37:47Z
2019-08-01T08:40:30Z,42.805,6.029,13.2958,4.59964,2469.876,2019-8-01T10:40:50Z
2019-08-01T08:43:34Z,42.805,6.029,13.2960,4.59958,2469.89,2019-8-01T10:43:53Z
2019-08-01T08:46:37Z,42.805,6.029,13.2961,4.59958,2469.914,2019-8-01T10:46:57Z
2019-08-01T08:49:40Z,42.805,6.029,13.2961,4.59960,2469.876,2019-8-01T10:50:00Z
2019-08-01T08:52:44Z,42.805,6.029,13.2960,4.59958,2469.9,2019-8-01T10:53:03Z
2019-08-01T08:55:47Z,42.805,6.029,13.2961,4.59959,2469.853,2019-8-01T10:56:06Z
2019-08-01T08:58:50Z,42.805,6.029,13.2960,4.59957,2469.867,2019-8-01T10:59:10Z
2019-08-01T09:01:53Z,42.805,6.029,13.2959,4.59956,2469.9,2019-8-01T11:02:13Z
2019-08-01T09:04:57Z,42.805,6.029,13.2959,4.59961,2469.853,2019-8-01T11:05:16Z
2019-08-01T09:08:00Z,42.805,6.029,13.2957,4.59958,2469.89,2019-8-01T11:08:20Z
2019-08-01T09:11:03Z,42.805,6.029,13.2959,4.59961,2469.9,2019-8-01T11:11:23Z
2019-08-01T09:14:06Z,42.805,6.029,13.2959,4.59960,2469.876,2019-8-01T11:14:26Z
2019-08-01T09:17:10Z,42.805,6.029,13.2958,4.59964,2469.876,2019-8-01T11:17:29Z
2019-08-01T09:20:13Z,42.805,6.029,13.2962,4.59958,2469.853,2019-8-01T11:20:33Z
2019-08-01T09:23:16Z,42.805,6.029,13.2960,4.59958,2469.914,2019-8-01T11:23:36Z
2019-08-01T09:26:20Z,42.805,6.029,13.2958,4.59960,2469.83,2019-8-01T11:26:39Z
2019-08-01T09:29:23Z,42.805,6.029,13.2964,4.59958,2469.853,2019-8-01T11:29:43Z
2019-08-01T09:32:26Z,42.805,6.029,13.2958,4.59961,2469.83,2019-8-01T11:32:46Z
2019-08-01T09:35:30Z,42.805,6.029,13.2961,4.59960,2469.89,2019-8-01T11:35:49Z
2019-08-01T09:38:33Z,42.805,6.029,13.2957,4.59961,2469.853,2019-8-01T11:38:53Z
2019-08-01T09:41:36Z,42.805,6.029,13.2959,4.59963,2469.876,2019-8-01T11:41:56Z
2019-08-01T09:44:40Z,42.805,6.029,13.2962,4.59959,2469.876,2019-8-01T11:44:59Z
2019-08-01T09:47:43Z,42.805,6.029,13.2958,4.59961,2469.876,2019-8-01T11:48:03Z
2019-08-01T09:50:46Z,42.805,6.029,13.2958,4.59961,2469.853,2019-8-01T11:51:06Z
2019-08-01T09:53:49Z,42.805,6.029,13.2956,4.59958,2469.844,2019-8-01T11:54:09Z
2019-08-01T09:56:52Z,42.805,6.029,13.2962,4.59958,2469.853,2019-8-01T11:57:12Z
2019-08-01T09:59:56Z,42.805,6.029,13.2958,4.59959,2469.867,2019-8-01T12:00:15Z
2019-08-01T10:02:59Z,42.805,6.029,13.2960,4.59962,2469.867,2019-8-01T12:03:18Z
2019-08-01T10:06:02Z,42.805,6.029,13.2958,4.59962,2469.844,2019-8-01T12:06:22Z
2019-08-01T10:09:05Z,42.805,6.029,13.2957,4.59958,2469.83,2019-8-01T12:09:25Z
2019-08-01T10:12:08Z,42.805,6.029,13.2958,4.59958,2469.821,2019-8-01T12:12:28Z
2019-08-01T10:15:12Z,42.805,6.029,13.2958,4.59960,2469.844,2019-8-01T12:15:31Z
2019-08-01T10:18:15Z,42.805,6.029,13.2958,4.59963,2469.821,2019-8-01T12:18:35Z
2019-08-01T10:21:18Z,42.805,6.029,13.2961,4.59959,2469.844,2019-8-01T12:21:38Z
2019-08-01T10:24:21Z,42.805,6.029,13.2959,4.59960,2469.83,2019-8-01T12:24:41Z
2019-08-01T10:27:24Z,42.805,6.029,13.2959,4.59959,2469.821,2019-8-01T12:27:44Z
2019-08-01T10:30:28Z,42.805,6.029,13.2956,4.59965,2469.821,2019-8-01T12:30:47Z
2019-08-01T10:33:31Z,42.805,6.029,13.2961,4.59960,2469.783,2019-8-01T12:33:51Z
2019-08-01T10:36:34Z,42.805,6.029,13.2958,4.59962,2469.783,2019-8-01T12:36:54Z
2019-08-01T10:39:37Z,42.805,6.029,13.2962,4.59958,2469.793,2019-8-01T12:39:57Z
2019-08-01T10:42:41Z,42.805,6.029,13.2958,4.59959,2469.806,2019-8-01T12:43:00Z
2019-08-01T10:45:44Z,42.805,6.029,13.2954,4.59958,2469.797,2019-8-01T12:46:03Z
2019-08-01T10:48:47Z,42.805,6.029,13.2960,4.59958,2469.806,2019-8-01T12:49:07Z
2019-08-01T10:51:50Z,42.805,6.029,13.2962,4.59960,2469.783,2019-8-01T12:52:10Z
2019-08-01T10:54:53Z,42.805,6.029,13.2960,4.59960,2469.797,2019-8-01T12:55:13Z
2019-08-01T10:57:57Z,42.805,6.029,13.2958,4.59961,2469.783,2019-8-01T12:58:16Z
2019-08-01T11:01:00Z,42.805,6.029,13.2957,4.59962,2469.783,2019-8-01T13:01:19Z
2019-08-01T11:04:03Z,42.805,6.029,13.2961,4.59961,2469.783,2019-8-01T13:04:23Z
2019-08-01T11:07:06Z,42.805,6.029,13.2958,4.59958,2469.783,2019-8-01T13:07:26Z
2019-08-01T11:10:09Z,42.805,6.029,13.2958,4.59960,2469.76,2019-8-01T13:10:29Z
2019-08-01T11:13:13Z,42.805,6.029,13.2959,4.59960,2469.76,2019-8-01T13:13:32Z
2019-08-01T11:16:16Z,42.805,6.029,13.2953,4.59960,2469.783,2019-8-01T13:16:35Z
2019-08-01T11:19:19Z,42.805,6.029,13.2962,4.59958,2469.76,2019-8-01T13:19:39Z
2019-08-01T11:22:22Z,42.805,6.029,13.2959,4.59961,2469.773,2019-8-01T13:22:42Z
2019-08-01T11:25:25Z,42.805,6.029,13.2959,4.59959,2469.783,2019-8-01T13:25:45Z
2019-08-01T11:28:28Z,42.805,6.029,13.2963,4.59958,2469.773,2019-8-01T13:28:48Z
2019-08-01T11:31:32Z,42.805,6.029,13.2961,4.59962,2469.773,2019-8-01T13:31:51Z
2019-08-01T11:34:35Z,42.805,6.029,13.2958,4.59958,2469.76,2019-8-01T13:34:55Z
2019-08-01T11:37:38Z,42.805,6.029,13.2957,4.59961,2469.773,2019-8-01T13:37:58Z
2019-08-01T11:40:41Z,42.805,6.029,13.2961,4.59958,2469.76,2019-8-01T13:41:01Z
2019-08-01T11:43:45Z,42.805,6.029,13.2964,4.59960,2469.773,2019-8-01T13:44:04Z
2019-08-01T11:46:48Z,42.805,6.029,13.2958,4.59958,2469.737,2019-8-01T13:47:08Z
2019-08-01T11:49:51Z,42.805,6.029,13.2960,4.59960,2469.76,2019-8-01T13:50:11Z
2019-08-01T11:52:54Z,42.805,6.029,13.2955,4.59958,2469.723,2019-8-01T13:53:14Z
2019-08-01T11:55:57Z,42.805,6.029,13.2962,4.59958,2469.773,2019-8-01T13:56:17Z
2019-08-01T11:59:01Z,42.805,6.029,13.2959,4.59961,2469.75,2019-8-01T13:59:20Z
2019-08-01T12:02:04Z,42.805,6.029,13.2958,4.59959,2469.737,2019-8-01T14:02:24Z
2019-08-01T12:05:07Z,42.805,6.029,13.2961,4.59961,2469.69,2019-8-01T14:05:27Z
2019-08-01T12:08:10Z,42.805,6.029,13.2961,4.59963,2469.69,2019-8-01T14:08:30Z
2019-08-01T12:11:14Z,42.805,6.029,13.2959,4.59958,2469.737,2019-8-01T14:11:33Z
2019-08-01T12:14:17Z,42.805,6.029,13.2957,4.59961,2469.737,2019-8-01T14:14:36Z
2019-08-01T12:17:20Z,42.805,6.029,13.2962,4.59958,2469.713,2019-8-01T14:17:40Z
2019-08-01T12:20:23Z,42.805,6.029,13.2961,4.59961,2469.75,2019-8-01T14:20:43Z
2019-08-01T12:23:26Z,42.805,6.029,13.2960,4.59963,2469.737,2019-8-01T14:23:46Z
2019-08-01T12:26:30Z,42.805,6.029,13.2961,4.59961,2469.723,2019-8-01T14:26:49Z
2019-08-01T12:29:33Z,42.805,6.029,13.2957,4.59959,2469.737,2019-8-01T14:29:53Z
2019-08-01T12:32:36Z,42.805,6.029,13.2962,4.59958,2469.737,2019-8-01T14:32:56Z
2019-08-01T12:35:39Z,42.805,6.029,13.2962,4.59961,2469.727,2019-8-01T14:35:59Z
2019-08-01T12:38:43Z,42.805,6.029,13.2961,4.59958,2469.727,2019-8-01T14:39:02Z
2019-08-01T12:41:46Z,42.805,6.029,13.2963,4.59962,2469.727,2019-8-01T14:42:05Z
2019-08-01T12:44:49Z,42.805,6.029,13.2958,4.59958,2469.713,2019-8-01T14:45:09Z
2019-08-01T12:47:52Z,42.805,6.029,13.2961,4.59958,2469.737,2019-8-01T14:48:12Z
2019-08-01T12:50:55Z,42.805,6.029,13.2961,4.59960,2469.713,2019-8-01T14:51:15Z
2019-08-01T12:53:59Z,42.805,6.029,13.2960,4.59960,2469.727,2019-8-01T14:54:18Z
2019-08-01T12:57:02Z,42.805,6.029,13.2961,4.59959,2469.737,2019-8-01T14:57:22Z
2019-08-01T13:00:05Z,42.805,6.029,13.2960,4.59959,2469.737,2019-8-01T15:00:25Z
2019-08-01T13:03:08Z,42.805,6.029,13.2964,4.59958,2469.713,2019-8-01T15:03:28Z
2019-08-01T13:06:11Z,42.805,6.029,13.2963,4.59958,2469.737,2019-8-01T15:06:31Z
2019-08-01T13:09:15Z,42.805,6.029,13.2961,4.59958,2469.713,2019-8-01T15:09:34Z
2019-08-01T13:12:18Z,42.805,6.029,13.2962,4.59958,2469.75,2019-8-01T15:12:38Z
2019-08-01T13:15:21Z,42.805,6.029,13.2959,4.59960,2469.713,2019-8-01T15:15:41Z
2019-08-01T13:18:24Z,42.805,6.029,13.2965,4.59958,2469.713,2019-8-01T15:18:44Z
2019-08-01T13:21:28Z,42.805,6.029,13.2962,4.59959,2469.713,2019-8-01T15:21:47Z
2019-08-01T13:24:31Z,42.805,6.029,13.2959,4.59960,2469.713,2019-8-01T15:24:50Z
2019-08-01T13:27:34Z,42.805,6.029,13.2961,4.59960,2469.713,2019-8-01T15:27:54Z
2019-08-01T13:30:37Z,42.805,6.029,13.2962,4.59961,2469.727,2019-8-01T15:30:57Z
2019-08-01T13:33:40Z,42.805,6.029,13.2964,4.59962,2469.69,2019-8-01T15:34:00Z
2019-08-01T13:36:44Z,42.805,6.029,13.2958,4.59961,2469.713,2019-8-01T15:37:03Z
2019-08-01T13:39:47Z,42.805,6.029,13.2961,4.59960,2469.713,2019-8-01T15:40:07Z
2019-08-01T13:42:50Z,42.805,6.029,13.2961,4.59960,2469.713,2019-8-01T15:43:10Z
2019-08-01T13:45:53Z,42.805,6.029,13.2961,4.59958,2469.713,2019-8-01T15:46:13Z
2019-08-01T13:48:57Z,42.805,6.029,13.2963,4.59960,2469.727,2019-8-01T15:49:16Z
2019-08-01T13:52:00Z,42.805,6.029,13.2961,4.59963,2469.667,2019-8-01T15:52:19Z
2019-08-01T13:55:03Z,42.805,6.029,13.2958,4.59963,2469.737,2019-8-01T15:55:23Z
2019-08-01T13:58:06Z,42.805,6.029,13.2959,4.59961,2469.713,2019-8-01T15:58:26Z
2019-08-01T14:01:09Z,42.805,6.029,13.2960,4.59961,2469.727,2019-8-01T16:01:29Z
2019-08-01T14:04:13Z,42.805,6.029,13.2964,4.59959,2469.704,2019-8-01T16:04:32Z
2019-08-01T14:07:16Z,42.805,6.029,13.2961,4.59959,2469.69,2019-8-01T16:07:36Z
2019-08-01T14:10:20Z,42.805,6.029,13.2961,4.59958,2469.75,2019-8-01T16:10:39Z
2019-08-01T14:13:23Z,42.805,6.029,13.2964,4.59959,2469.737,2019-8-01T16:13:42Z
2019-08-01T14:16:26Z,42.805,6.029,13.2964,4.59964,2469.713,2019-8-01T16:16:46Z
2019-08-01T14:19:29Z,42.805,6.029,13.2959,4.59961,2469.713,2019-8-01T16:19:49Z
2019-08-01T14:22:32Z,42.805,6.029,13.2964,4.59960,2469.737,2019-8-01T16:22:52Z
2019-08-01T14:25:36Z,42.805,6.029,13.2964,4.59967,2469.704,2019-8-01T16:25:55Z
2019-08-01T14:28:39Z,42.805,6.029,13.2962,4.59958,2469.704,2019-8-01T16:28:59Z
2019-08-01T14:31:42Z,42.805,6.029,13.2967,4.59958,2469.727,2019-8-01T16:32:02Z
2019-08-01T14:34:45Z,42.805,6.029,13.2961,4.59966,2469.75,2019-8-01T16:35:05Z
2019-08-01T14:37:49Z,42.805,6.029,13.2964,4.59961,2469.727,2019-8-01T16:38:08Z
2019-08-01T14:40:52Z,42.805,6.029,13.2961,4.59960,2469.713,2019-8-01T16:41:11Z
2019-08-01T14:43:55Z,42.805,6.029,13.2960,4.59963,2469.713,2019-8-01T16:44:15Z
2019-08-01T14:46:58Z,42.805,6.029,13.2961,4.59962,2469.713,2019-8-01T16:47:18Z
2019-08-01T14:50:01Z,42.805,6.029,13.2964,4.59966,2469.737,2019-8-01T16:50:21Z
2019-08-01T14:53:05Z,42.805,6.029,13.2960,4.59959,2469.713,2019-8-01T16:53:24Z
2019-08-01T14:56:08Z,42.805,6.029,13.2964,4.59961,2469.75,2019-8-01T16:56:28Z
2019-08-01T14:59:11Z,42.805,6.029,13.2962,4.59962,2469.737,2019-8-01T16:59:31Z
2019-08-01T15:02:14Z,42.805,6.029,13.2964,4.59964,2469.727,2019-8-01T17:02:34Z
2019-08-01T15:05:17Z,42.805,6.029,13.2961,4.59963,2469.737,2019-8-01T17:05:37Z
2019-08-01T15:08:21Z,42.805,6.029,13.2963,4.59961,2469.764,2019-8-01T17:08:40Z
2019-08-01T15:11:24Z,42.805,6.029,13.2965,4.59960,2469.76,2019-8-01T17:11:44Z
2019-08-01T15:14:27Z,42.805,6.029,13.2965,4.59961,2469.737,2019-8-01T17:14:47Z